Location: Eberbach
(49.4690°N, 8.9930°E)
Time: 09:11:35
(UTC+02:00)

ISS - Visible Passes

Search period start: 18 July 2018 00:00
Search period end: 28 July 2018 00:00
Orbit: 402 x 408 km, 51.6° (Epoch: 18 July)

Date Brightness Start Highest point End Pass type
(mag) Time Alt. Az. Time Alt. Az. Time Alt. Az.
18 Jul -3.6 00:50:11 57° E 00:50:11 57° E 00:52:57 10° ENE visible
18 Jul -3.2 02:23:00 10° W 02:26:16 57° N 02:29:32 10° ENE visible
18 Jul -3.8 03:59:38 10° WNW 04:02:57 83° NNE 04:06:14 10° ESE visible
18 Jul -3.4 23:58:10 42° ESE 23:58:10 42° ESE 00:00:49 10° ENE visible
19 Jul -3.4 01:30:49 10° W 01:34:05 63° N 01:37:22 10° ENE visible
19 Jul -3.5 03:07:31 10° WNW 03:10:48 66° N 03:14:05 10° E visible
19 Jul -3.4 04:44:06 10° WNW 04:47:13 41° SSW 04:50:21 10° SE visible
19 Jul -3.1 23:02:41 10° SSW 23:05:37 30° SE 23:08:34 10° E visible
20 Jul -3.7 00:38:39 10° WSW 00:41:56 76° NNW 00:45:14 10° ENE visible
20 Jul -3.2 02:15:22 10° WNW 02:18:38 58° N 02:21:54 10° E visible
20 Jul -3.9 03:51:55 10° WNW 03:55:11 62° SSW 03:58:27 10° ESE visible
20 Jul -2.4 22:11:14 10° S 22:13:40 19° SE 22:16:07 10° E visible
20 Jul -4.0 23:46:31 10° WSW 23:49:48 81° SSE 23:53:06 10° ENE visible
21 Jul -3.2 01:23:10 10° W 01:26:26 56° N 01:29:41 10° E visible
21 Jul -3.9 02:59:46 10° WNW 03:03:05 88° SSW 03:06:22 10° ESE visible
21 Jul -2.6 04:36:38 10° W 04:39:16 22° SW 04:41:53 10° SSE visible
21 Jul -3.8 22:54:29 10° SW 22:57:42 55° SSE 23:00:56 10° ENE visible
22 Jul -3.3 00:30:58 10° W 00:34:13 60° N 00:37:30 10° ENE visible
22 Jul -3.6 02:07:38 10° WNW 02:10:55 72° NNE 02:14:12 10° E visible
22 Jul -3.2 03:44:15 10° W 03:47:17 34° SSW 03:50:18 10° SE visible
22 Jul -3.2 22:02:36 10° SW 22:05:38 36° SSE 22:08:41 10° E visible
22 Jul -3.6 23:38:44 10° W 23:42:01 70° NNW 23:45:18 10° ENE visible
23 Jul -3.3 01:15:27 10° WNW 01:18:43 60° N 01:20:45 21° E visible
23 Jul -2.0 02:51:59 10° WNW 02:53:14 20° W 02:53:14 20° W visible
23 Jul -3.9 22:46:32 10° WSW 22:49:49 89° WNW 22:53:08 10° ENE visible
24 Jul -3.2 00:23:14 10° WNW 00:26:29 56° N 00:29:01 15° ENE visible
24 Jul -2.4 01:59:48 10° WNW 02:01:36 30° WNW 02:01:36 30° WNW visible
24 Jul -3.8 21:54:25 10° WSW 21:57:40 64° SSE 22:00:56 10° ENE visible
24 Jul -3.2 23:30:59 10° W 23:34:13 57° N 23:37:29 10° ENE visible
25 Jul -3.6 01:07:37 10° WNW 01:10:36 68° NW 01:10:36 68° NW visible
25 Jul -3.4 22:38:43 10° W 22:41:59 65° N 22:45:15 10° ENE visible
26 Jul -3.4 00:15:25 10° WNW 00:18:41 63° N 00:19:48 36° ENE visible
26 Jul -1.2 01:51:58 10° WNW 01:52:25 13° W 01:52:25 13° W visible
26 Jul -3.7 21:46:28 10° WSW 21:49:45 81° NNW 21:53:03 10° ENE visible
26 Jul -3.2 23:23:10 10° WNW 23:26:25 57° N 23:29:05 14° E visible
27 Jul -2.5 00:59:43 10° WNW 01:01:42 33° W 01:01:42 33° W visible
27 Jul -3.2 22:30:53 10° W 22:34:08 56° N 22:37:23 10° ENE visible
